Location: Austin
(30.3000°N, 97.7500°W)
Time: 23:43:57
(UTC-05:00)

GOES 2 Rocket - Pass Details

Date: 08 April 2026
Orbit: 568 x 1658 km, 28.4° (Epoch: 20 April)

Event Time Altitude Azimuth Distance (km) Brightness Sun altitude
Rises 21:38:23 0° 250° (WSW) 4,460 8.1 -22.3°
Reaches altitude 10° 21:41:46 10° 247° (WSW) 3,326 7.3 -23.0°
Maximum altitude 21:49:50 62° 169° (SSE) 1,180 4.2 -24.6°
Enters shadow 21:51:04 54° 125° (SE) 1,230 4.1 -24.8°
